Temperature
14 14 15 15 13 11 13 14 16 17 18 19 19 18 16 16 17 17 15 15 16 16 16 16 16 16 16 16 17 17 17 17 17 17 17 17 17 17 17 17 17 17 16 16 16 16 16 16 16
14 14 15 14 12 12 13 14 16 17 19 19 18 17 16 15 16 15 15 15 15 16 16 16 16 16 16 16 16 16 16 16 16 16 16 16 16 16 16 16 16 16 16 16 16 16 16 16 16
14 14 14 11 12 13 15 16 16 17 19 19 17 17 16 15 15 15 15 15 15 15 15 16 16 16 16 16 16 16 16 16 16 16 16 16 16 16 16 16 16 16 16 16 16 16 16 16 16
14 14 14 11 13 13 15 16 16 17 19 19 17 15 15 16 16 16 15 15 15 15 15 15 15 16 16 16 16 16 16 16 16 16 16 16 16 16 16 16 16 16 16 16 16 15 15 15 15
14 14 12 12 13 14 14 16 17 17 17 18 17 14 15 15 15 15 15 15 15 15 15 15 15 15 15 16 16 16 16 16 16 16 16 15 15 15 15 15 15 15 15 15 15 15 15 15 15
13 11 11 12 13 14 15 17 17 16 17 17 16 14 14 15 15 15 15 15 15 15 15 15 15 15 15 15 15 15 15 15 15 15 15 15 15 15 15 15 15 15 15 15 15 15 15 15 15
12 10 11 12 13 14 16 17 17 16 16 17 17 13 13 14 14 14 14 14 14 14 14 14 15 15 15 15 15 15 15 15 15 15 15 15 15 15 15 15 15 15 15 15 15 15 14 14 15
13 11 12 13 14 15 16 17 18 17 17 17 17 14 13 14 14 14 14 14 14 14 14 14 14 14 14 14 15 15 15 15 15 15 15 15 15 15 15 14 14 14 14 14 14 14 14 14 14
13 11 11 13 14 15 16 17 17 17 17 16 17 17 16 15 14 14 14 14 13 14 14 14 14 14 14 14 14 14 14 14 14 14 14 14 14 14 14 14 14 14 14 14 14 14 14 14 14
12 10 12 14 14 15 16 16 16 16 15 15 15 16 16 14 14 14 14 14 13 13 14 14 14 14 14 14 14 14 14 14 14 14 14 14 14 14 14 14 14 14 14 14 14 14 14 14 14
11 11 12 14 15 15 15 15 16 15 14 15 15 15 15 14 14 14 14 14 14 14 13 13 13 13 13 13 13 13 13 13 13 13 13 13 13 13 13 13 13 13 13 13 13 13 13 13 13
11 12 13 14 15 15 15 15 15 15 16 17 17 16 15 14 14 14 14 14 14 13 13 13 13 13 13 13 13 13 13 13 13 13 13 13 13 13 13 13 13 13 13 13 13 13 13 13 13
11 12 13 14 14 14 15 14 14 15 16 16 16 15 15 14 14 14 14 14 13 13 13 13 13 13 13 13 13 13 12 12 12 12 12 12 12 13 12 12 12 12 12 12 12 12 12 12 12
11 12 12 13 14 14 13 13 13 14 15 15 15 14 14 14 14 14 13 13 13 13 13 13 12 12 12 12 12 12 12 12 12 12 12 12 12 12 12 12 12 12 12 12 12 12 12 12 12
12 11 11 12 12 13 13 12 12 14 14 14 14 14 14 14 14 14 13 13 13 13 13 12 12 12 12 12 12 12 12 12 12 12 11 11 11 11 11 11 11 11 11 11 11 11 11 11 11
11 10 10 11 12 12 12 11 12 14 13 13 13 14 14 14 13 13 13 13 13 13 12 12 12 12 12 11 11 11 11 11 11 11 11 11 11 11 11 11 11 11 11 11 11 11 11 11 11
9 9 9 11 11 11 11 11 11 13 13 12 13 13 13 13 13 13 13 13 13 12 12 12 12 12 11 11 11 11 11 11 11 11 11 11 11 10 10 10 10 10 10 10 10 10 10 10 10
8 8 9 10 11 10 10 10 11 12 12 12 12 13 13 13 13 13 13 13 12 12 12 12 11 11 11 11 10 10 10 10 10 10 10 10 10 10 10 10 10 10 10 10 10 10 9 9 9
9 9 9 10 11 10 10 10 11 11 11 10 11 12 12 13 13 13 13 12 12 12 12 11 11 11 11 11 10 10 10 10 10 10 10 10 10 9 9 9 9 9 9 9 9 9 9 9 9
9 9 9 10 10 10 9 10 10 10 10 11 11 11 12 13 13 13 12 12 12 12 11 11 11 11 11 10 10 10 10 10 10 9 9 9 9 9 9 9 9 9 9 8 8 8 8 8 8
8 8 9 9 10 10 9 9 9 10 10 11 11 12 12 12 12 12 12 12 12 11 11 11 11 11 10 10 10 9 9 9 9 9 9 9 8 8 8 8 8 8 8 8 8 8 8 7 7
8 9 9 9 8 7 9 7 8 9 9 9 10 11 11 12 12 12 12 12 11 12 11 11 11 10 10 10 9 9 9 9 9 9 8 8 8 8 8 8 8 8 7 7 7 7 7 7 6
8 9 9 8 8 7 7 7 7 8 8 9 9 10 11 12 12 12 12 12 12 11 11 11 10 10 10 9 9 9 9 9 9 8 8 8 8 8 8 7 7 7 7 7 7 7 7 6 6
8 8 7 6 6 7 7 6 7 7 8 9 9 10 10 11 11 11 11 11 11 11 10 10 10 10 9 9 9 9 8 8 8 8 8 7 7 7 7 7 7 7 7 7 6 6 6 6 6
8 6 6 6 6 6 6 7 7 8 8 8 9 9 10 10 11 11 11 11 11 10 10 10 9 9 9 9 8 8 8 8 8 8 7 7 7 7 7 7 6 6 6 6 6 6 6 6 5
6 6 6 6 6 6 6 6 7 8 8 9 9 9 9 9 10 10 10 10 10 10 10 9 9 9 9 8 8 8 8 8 8 7 7 7 7 7 6 6 6 6 6 6 6 6 5 5 5
6 6 6 5 5 5 6 6 7 8 7 7 7 8 8 8 9 9 10 10 10 10 10 9 9 9 8 8 8 8 8 7 7 7 7 7 7 6 6 6 6 6 6 5 5 5 5 5 5
6 5 5 5 5 6 7 6 6 7 7 7 6 6 7 8 8 9 9 9 9 9 9 9 9 8 8 8 8 7 7 7 7 7 7 6 6 6 6 6 5 5 5 5 5 5 5 5 5
5 5 4 4 4 5 6 6 7 6 6 6 6 6 7 7 7 8 8 8 9 9 9 8 8 8 8 8 7 7 7 7 6 6 6 6 6 6 5 5 5 5 5 5 5 5 4 4 4
5 4 4 4 4 4 5 6 7 6 6 6 6 6 7 7 7 7 7 8 8 8 8 8 8 7 7 7 7 7 7 7 6 6 6 6 5 5 5 5 5 5 5 4 4 4 4 4 4
Wind_Speed
0 3 3 4 5 3 5 6 5 3 2 2 2 7 8 6 4 5 4 8 10 9 11 13 13 13 13 13 13 12 12 12 12 11 11 10 10 9 9 8 7 7 6 6 5 5 4 4 4
2 2 4 4 4 3 6 6 7 7 4 4 4 5 6 4 3 7 6 9 12 11 11 12 14 13 13 13 13 13 12 12 11 11 11 10 9 9 8 8 8 7 7 6 5 5 5 4 3
2 2 4 4 5 7 7 5 8 5 4 3 3 4 5 6 5 6 7 12 11 10 11 13 14 14 13 13 13 12 11 11 11 10 10 10 9 9 8 8 8 7 6 6 6 5 5 4 3
3 3 3 3 7 8 7 4 3 3 1 3 5 5 3 1 6 7 11 12 12 9 11 13 14 14 13 13 12 12 11 11 10 10 9 9 9 9 8 8 7 7 6 6 5 5 5 4 4
3 3 3 4 8 6 6 6 3 2 2 3 6 6 2 3 7 12 12 12 12 8 9 12 14 14 13 13 12 11 11 10 10 9 9 9 8 8 8 7 7 6 6 5 5 4 5 5 4
3 3 4 6 8 6 6 5 3 3 2 3 6 6 2 1 9 11 11 11 11 9 9 11 14 14 13 12 12 11 10 10 9 9 9 8 8 7 7 6 6 6 6 5 5 4 4 4 4
4 4 6 6 6 6 6 4 5 6 4 5 8 7 3 3 7 10 11 10 9 9 8 8 10 11 12 12 11 11 10 9 9 8 8 8 7 7 7 6 6 5 6 6 5 5 4 4 3
5 4 4 5 6 7 4 3 4 7 5 3 6 10 8 8 8 10 10 9 8 7 7 7 9 9 9 10 11 11 10 9 9 8 8 7 7 7 6 6 5 5 5 5 5 5 5 4 4
4 3 6 7 6 5 2 2 1 1 5 3 2 6 7 12 12 12 9 7 7 7 5 6 7 8 8 9 9 9 9 8 8 7 8 7 7 6 5 5 6 6 5 5 5 5 5 5 5
4 6 9 6 4 3 1 1 2 2 3 3 4 4 9 13 13 13 12 11 9 8 6 5 7 6 7 7 7 7 6 6 6 6 7 6 6 5 5 6 7 6 7 6 6 6 6 5 4
6 8 6 5 4 2 1 2 1 5 3 6 8 10 12 11 12 12 12 11 10 9 7 6 6 6 6 5 5 5 5 5 6 6 6 6 6 5 5 5 6 6 7 6 6 7 6 4 4
6 6 6 4 3 2 2 1 1 3 6 6 10 15 13 13 13 13 12 10 9 9 8 7 6 6 5 6 5 5 4 4 4 4 5 5 4 3 3 3 4 4 4 5 5 5 5 4 4
7 6 6 5 4 3 2 3 2 5 4 4 9 12 13 13 11 9 10 9 9 9 8 7 6 6 6 5 4 4 4 4 4 4 4 5 3 2 2 2 3 3 4 4 4 4 4 4 4
6 6 5 5 6 4 4 5 3 7 4 7 10 11 11 12 11 9 8 9 9 10 9 7 7 7 6 5 4 3 4 4 4 3 3 4 4 3 2 1 2 2 3 3 3 3 3 3 3
3 2 4 5 5 5 3 6 8 8 6 8 9 10 10 10 10 11 11 11 11 10 9 8 8 7 6 5 4 4 4 4 3 3 3 4 3 3 2 1 1 2 3 3 3 3 3 3 3
2 2 4 5 5 5 6 10 8 6 8 9 9 9 9 9 10 10 10 10 10 10 9 9 8 7 6 5 4 4 4 4 3 3 3 3 3 3 3 1 1 2 3 2 1 2 2 3 4
2 5 7 5 5 5 7 8 7 5 8 10 10 9 9 8 8 9 10 10 10 11 10 9 7 8 7 5 4 4 4 3 3 3 3 3 3 3 3 1 1 2 2 2 2 2 1 3 4
7 6 6 7 5 5 7 9 8 5 7 10 9 9 9 10 11 10 10 10 10 10 10 9 8 7 6 5 3 2 2 2 2 2 2 2 2 2 2 1 1 2 1 2 2 2 2 2 3
6 6 6 6 5 5 9 11 11 7 6 8 9 9 10 11 9 8 10 9 9 9 10 10 9 7 6 4 4 3 2 2 1 1 2 2 2 2 2 1 1 1 1 1 2 1 2 2 3
5 4 5 3 3 4 6 10 9 8 8 9 10 10 10 8 6 8 9 9 10 11 11 10 10 9 7 5 4 3 3 2 2 1 1 2 2 1 1 1 0 0 1 1 2 1 1 2 2
7 7 6 4 2 1 1 7 7 6 5 6 7 9 9 11 11 11 11 11 11 11 12 11 10 9 7 6 4 3 2 2 1 1 1 1 2 1 1 1 0 1 1 1 2 1 1 2 2
7 7 6 4 2 3 3 4 7 5 5 7 8 8 9 9 10 10 11 12 12 12 11 10 10 9 7 7 7 6 4 3 3 3 2 2 2 2 2 2 1 1 1 2 2 1 1 1 2
5 3 5 4 3 1 2 3 8 3 6 9 9 9 9 9 10 11 12 13 12 11 10 10 9 9 8 8 8 7 4 3 2 2 2 2 2 2 2 2 2 2 2 3 3 2 2 2 2
3 4 3 2 2 4 7 6 7 5 8 7 8 7 7 7 8 9 9 10 9 8 9 9 10 8 8 8 7 7 6 4 3 3 3 2 2 2 3 3 2 3 3 3 3 3 3 3 3
4 5 2 0 2 7 5 6 8 7 6 7 7 7 5 5 6 6 8 10 10 10 10 9 10 9 8 8 7 7 6 6 6 5 4 3 2 2 3 3 3 3 3 4 4 4 4 4 4
6 7 6 6 6 4 3 6 6 5 4 3 4 4 3 3 4 6 8 10 11 11 10 10 10 8 8 8 7 6 6 5 4 4 4 4 4 4 4 3 3 4 4 4 3 3 4 4 4
5 5 4 4 2 2 4 5 5 3 2 1 1 2 2 3 3 4 5 8 9 10 10 11 10 8 8 8 6 6 5 5 4 4 3 3 3 3 3 3 3 4 4 4 4 4 4 4 4
2 4 3 4 5 4 4 4 4 2 2 1 1 1 1 1 1 1 2 5 7 8 7 8 8 9 7 7 6 5 5 5 4 4 4 3 3 3 3 3 3 4 4 4 4 4 4 4 5
2 2 2 3 3 4 3 4 3 3 2 2 2 1 2 2 1 1 1 2 4 5 6 6 6 6 5 6 5 5 5 4 4 4 4 4 3 3 3 4 4 4 4 4 4 5 5 5 5
2 4 4 4 3 3 3 4 3 1 0 2 2 1 1 2 1 2 2 3 3 4 4 4 5 5 5 5 5 4 4 4 3 3 3 3 3 3 4 3 4 4 5 4 5 6 5 6 6
Wind_Direction
221 66 85 69 69 74 231 239 229 238 199 191 133 116 121 120 145 160 143 140 134 134 131 129 125 120 116 113 108 103 100 97 95 92 90 89 87 87 88 87 85 84 83 84 84 82 87 90 92
90 94 73 74 116 183 247 236 226 228 207 154 107 99 95 94 96 118 134 142 134 129 127 129 127 122 118 114 110 106 102 99 96 93 91 89 86 85 84 81 79 79 76 76 76 74 73 80 84
97 122 104 105 163 195 221 224 216 220 216 167 94 70 112 132 139 146 151 140 127 123 126 132 129 124 120 116 113 109 105 102 98 95 92 91 88 86 83 79 75 75 74 72 69 69 69 71 76
91 81 77 132 218 225 217 216 202 175 157 106 118 83 75 136 161 146 136 132 124 124 129 134 129 126 121 118 115 111 107 103 100 97 94 92 89 85 80 76 73 70 69 71 69 67 61 64 65
77 103 139 220 235 243 238 240 236 216 185 127 119 114 75 352 114 125 132 132 129 128 130 133 131 128 124 120 117 114 109 104 102 99 96 93 89 85 79 74 69 65 62 60 63 65 61 57 52
96 105 159 219 236 247 253 234 208 209 199 144 120 120 139 130 123 132 133 133 133 133 129 132 133 130 127 123 120 116 112 107 104 101 97 94 91 86 80 74 68 63 58 53 53 53 55 52 45
141 148 196 211 227 246 246 216 193 195 194 189 142 123 146 175 148 134 129 126 126 126 122 120 125 128 129 125 122 117 112 108 106 104 99 93 89 84 77 72 65 59 55 48 42 39 39 38 33
160 150 214 218 215 239 242 188 196 182 189 158 130 143 176 192 150 124 120 120 121 121 121 115 114 117 118 121 121 117 113 109 105 101 96 89 84 82 75 65 59 53 44 38 33 29 27 22 16
140 156 215 214 205 230 251 178 236 136 117 78 97 168 174 148 133 123 121 120 129 132 131 124 118 119 122 124 123 118 115 111 103 96 94 83 77 73 64 55 50 44 35 29 23 16 15 15 9
154 199 220 219 210 224 287 182 181 97 91 80 51 71 127 139 141 144 150 154 156 156 154 143 134 130 128 126 118 111 108 103 99 98 95 88 81 70 59 53 46 39 30 24 17 11 6 8 5
179 205 222 248 257 262 286 291 282 139 179 190 169 153 145 147 150 155 161 164 166 162 158 157 149 140 131 125 122 111 110 106 101 104 103 94 80 67 56 47 37 31 27 21 11 9 4 5 0
197 228 215 234 256 269 255 263 290 204 207 193 168 157 156 161 167 169 169 168 162 160 160 158 152 144 137 132 128 126 121 113 105 110 112 102 84 65 56 49 36 33 25 20 13 8 2 358 351
221 233 237 241 249 250 247 236 216 242 229 158 149 156 167 172 176 176 169 164 159 161 162 160 154 149 141 132 136 130 132 132 127 115 111 114 106 97 76 52 40 27 22 21 11 5 1 355 347
214 227 248 248 243 239 227 254 224 244 188 155 163 175 180 180 176 167 164 165 166 166 164 162 158 152 143 143 143 139 135 132 121 114 118 120 114 108 95 63 37 17 12 14 16 3 354 338 334
177 209 276 252 226 223 186 263 231 226 181 179 186 187 187 190 180 178 177 173 171 167 162 161 160 151 147 144 145 135 133 128 121 119 117 111 109 107 101 84 26 355 3 16 21 7 3 343 334
147 181 238 250 201 198 169 244 248 210 183 200 202 199 197 199 193 187 179 171 168 161 160 164 159 152 150 147 144 134 132 126 124 123 114 106 103 105 95 81 352 354 16 23 2 349 347 336 327
173 203 223 252 204 180 187 239 249 209 188 204 206 204 203 202 201 194 182 174 169 166 163 163 156 157 156 149 143 136 130 126 129 122 113 113 101 99 99 92 15 19 28 3 339 350 337 325 323
198 199 211 222 216 182 208 240 254 234 203 210 209 205 203 204 206 194 183 175 167 164 162 160 155 157 150 138 124 114 110 119 124 131 135 131 115 101 94 84 39 42 25 353 345 331 328 308 311
180 188 219 235 231 197 223 242 250 240 222 219 215 208 206 210 208 186 178 170 161 161 161 162 159 162 153 148 151 153 168 177 181 175 155 142 132 122 104 67 29 36 10 319 319 311 326 328 333
208 212 229 259 238 210 235 255 256 236 224 214 209 210 210 207 196 184 178 173 171 172 171 169 168 167 168 169 168 163 161 178 193 189 153 170 163 153 130 126 275 312 336 344 329 338 332 326 0
226 211 208 214 324 348 252 282 259 250 230 226 218 211 206 200 195 189 182 182 178 176 177 176 175 172 171 161 140 115 86 69 78 211 218 228 200 188 184 172 188 276 235 268 281 272 239 291 310
231 213 200 188 157 248 177 256 268 242 238 233 230 221 216 208 199 190 183 183 185 184 179 174 173 172 169 159 158 161 169 184 211 205 216 239 226 220 218 214 213 242 248 252 262 259 237 235 281
209 198 189 191 173 255 213 214 275 250 235 237 231 223 219 209 198 192 187 185 185 180 175 173 170 171 168 166 168 170 178 192 193 188 207 237 250 240 237 228 218 239 250 252 255 260 255 237 246
144 80 61 58 109 241 213 193 265 232 224 229 228 223 216 206 198 193 186 176 175 172 169 169 169 174 172 170 172 177 180 184 178 194 212 235 254 257 254 250 240 244 251 253 250 246 249 248 248
134 118 105 194 217 240 200 193 248 245 232 214 214 216 210 197 185 177 176 176 173 170 172 174 174 178 178 175 180 186 186 185 189 199 211 221 241 254 255 261 254 252 252 255 254 249 255 249 247
191 162 171 190 205 248 199 219 253 261 251 229 211 200 182 175 184 182 182 180 176 174 174 175 178 180 181 181 187 187 184 186 198 207 209 217 229 238 244 251 256 254 254 260 260 255 255 253 250
166 193 176 143 157 198 240 261 296 331 358 22 86 116 166 186 187 185 182 176 175 175 178 179 179 180 184 185 183 184 185 189 201 210 212 220 232 240 239 247 256 263 263 262 260 260 260 257 255
150 147 120 149 168 218 242 234 235 270 260 290 121 149 176 160 153 143 164 178 176 175 174 175 177 181 184 183 184 187 188 194 198 200 212 223 235 237 242 253 260 266 268 266 260 265 261 258 263
140 141 143 153 175 172 214 249 224 206 216 201 204 182 152 144 128 137 123 143 152 151 156 165 174 174 180 185 185 182 190 193 193 205 217 226 234 236 244 252 259 263 266 265 261 266 267 265 270
176 170 148 162 217 200 196 256 304 279 263 141 145 120 100 101 91 90 87 84 109 131 146 161 171 176 186 185 179 181 184 184 194 211 222 226 229 238 246 252 260 266 268 263 260 266 270 268 271
Height
1496 1498 1500 1503 1507 1515 1513 1503 1495 1490 1488 1487 1486 1487 1489 1494 1497 1503 1501 1501 1503 1506 1508 1510 1512 1514 1515 1516 1517 1518 1519 1520 1520 1521 1521 1522 1522 1523 1523 1524 1524 1524 1524 1525 1525 1525 1525 1525 1525
1496 1498 1501 1502 1509 1517 1510 1497 1491 1486 1485 1486 1487 1487 1489 1492 1494 1496 1497 1500 1503 1506 1508 1509 1511 1513 1514 1515 1517 1517 1518 1519 1520 1520 1521 1521 1522 1522 1522 1523 1523 1523 1524 1524 1524 1524 1524 1524 1524
1495 1497 1499 1502 1508 1508 1500 1489 1485 1483 1483 1484 1486 1488 1489 1492 1493 1495 1497 1500 1503 1505 1507 1509 1511 1512 1514 1515 1516 1517 1518 1518 1519 1520 1520 1520 1521 1521 1521 1522 1522 1522 1523 1523 1523 1523 1523 1523 1523
1495 1497 1499 1503 1502 1495 1489 1484 1482 1482 1482 1483 1485 1489 1491 1493 1494 1495 1497 1500 1503 1505 1507 1509 1510 1512 1513 1514 1515 1516 1517 1518 1518 1519 1519 1519 1520 1520 1520 1520 1521 1521 1521 1522 1522 1522 1522 1522 1522
1493 1495 1500 1502 1497 1489 1484 1482 1482 1481 1481 1482 1484 1488 1491 1493 1494 1495 1497 1500 1502 1504 1506 1508 1510 1511 1513 1514 1514 1515 1516 1517 1517 1517 1518 1518 1518 1519 1519 1519 1519 1520 1520 1520 1520 1520 1520 1520 1520
1492 1493 1501 1500 1492 1485 1482 1480 1482 1481 1481 1482 1483 1487 1491 1493 1493 1495 1498 1500 1502 1504 1506 1508 1509 1511 1512 1513 1514 1514 1515 1516 1516 1516 1517 1517 1517 1517 1518 1518 1518 1518 1518 1518 1518 1518 1519 1518 1518
1490 1493 1495 1493 1489 1485 1480 1478 1480 1480 1480 1481 1481 1486 1490 1493 1494 1495 1498 1500 1502 1504 1506 1507 1508 1510 1511 1512 1513 1513 1514 1514 1515 1515 1515 1515 1516 1516 1516 1516 1516 1516 1516 1517 1517 1516 1516 1517 1517
1486 1490 1490 1489 1486 1482 1476 1476 1476 1477 1478 1480 1480 1483 1487 1490 1493 1495 1498 1500 1502 1503 1505 1506 1507 1508 1509 1510 1511 1512 1513 1513 1513 1514 1514 1514 1514 1514 1514 1514 1515 1515 1514 1515 1515 1514 1514 1514 1514
1484 1490 1489 1484 1482 1478 1474 1475 1475 1475 1476 1478 1479 1480 1482 1487 1491 1493 1496 1498 1500 1502 1503 1505 1506 1507 1508 1509 1510 1511 1511 1512 1512 1513 1513 1513 1513 1513 1513 1513 1513 1513 1513 1512 1512 1512 1512 1512 1512
1481 1486 1481 1476 1475 1474 1473 1473 1474 1475 1476 1477 1478 1479 1482 1485 1488 1490 1493 1495 1497 1499 1501 1503 1505 1506 1507 1508 1509 1510 1510 1511 1511 1511 1512 1512 1512 1512 1512 1512 1511 1511 1511 1511 1510 1510 1510 1510 1510
1477 1478 1475 1473 1472 1472 1472 1473 1473 1473 1476 1475 1475 1478 1481 1483 1486 1488 1491 1493 1495 1498 1500 1502 1503 1505 1506 1507 1508 1508 1509 1509 1510 1510 1510 1510 1511 1510 1510 1510 1510 1509 1509 1509 1508 1508 1508 1507 1507
1474 1473 1472 1471 1471 1472 1472 1472 1473 1472 1472 1473 1474 1476 1479 1481 1484 1486 1488 1491 1494 1496 1498 1500 1502 1503 1504 1505 1506 1507 1507 1508 1508 1509 1509 1509 1509 1509 1509 1508 1508 1508 1507 1507 1507 1506 1506 1505 1505
1471 1470 1470 1470 1471 1471 1471 1471 1471 1470 1471 1473 1474 1476 1477 1479 1482 1485 1487 1490 1492 1494 1496 1498 1500 1501 1503 1504 1505 1505 1506 1507 1507 1507 1508 1508 1508 1507 1507 1507 1506 1506 1506 1505 1505 1504 1504 1503 1503
1468 1469 1469 1469 1469 1470 1470 1470 1470 1467 1469 1471 1472 1474 1476 1477 1480 1483 1485 1487 1489 1491 1494 1496 1498 1500 1501 1502 1503 1504 1504 1505 1506 1506 1506 1506 1506 1506 1506 1505 1505 1504 1504 1503 1503 1502 1501 1501 1500
1466 1469 1469 1467 1467 1468 1469 1470 1467 1465 1468 1469 1470 1472 1474 1476 1478 1480 1482 1485 1487 1489 1491 1494 1496 1498 1499 1500 1501 1502 1503 1504 1504 1504 1505 1505 1505 1504 1504 1503 1503 1502 1502 1501 1501 1500 1499 1498 1498
1466 1470 1472 1466 1465 1465 1471 1470 1463 1464 1465 1466 1467 1469 1471 1473 1475 1478 1481 1483 1485 1487 1489 1492 1494 1496 1497 1499 1500 1500 1501 1502 1502 1503 1503 1503 1503 1503 1502 1502 1501 1501 1500 1499 1498 1497 1496 1496 1495
1468 1473 1471 1466 1462 1463 1467 1466 1460 1461 1462 1462 1464 1466 1468 1470 1472 1475 1478 1480 1483 1485 1487 1489 1491 1493 1495 1496 1498 1499 1499 1500 1501 1501 1501 1501 1501 1501 1500 1500 1499 1499 1498 1497 1496 1495 1494 1493 1492
1469 1470 1468 1466 1461 1462 1464 1462 1458 1459 1459 1459 1460 1462 1464 1466 1468 1471 1474 1477 1480 1482 1485 1487 1489 1491 1493 1494 1495 1497 1497 1498 1499 1499 1499 1500 1499 1499 1499 1498 1497 1497 1496 1495 1494 1493 1492 1490 1489
1461 1463 1464 1462 1459 1461 1462 1460 1456 1456 1457 1457 1457 1458 1460 1461 1465 1468 1471 1474 1477 1479 1481 1483 1485 1488 1490 1491 1492 1493 1494 1496 1497 1497 1497 1498 1497 1497 1497 1496 1495 1495 1494 1493 1492 1490 1489 1488 1486
1459 1462 1463 1460 1458 1460 1461 1458 1454 1453 1453 1452 1453 1454 1456 1458 1461 1464 1467 1470 1472 1474 1477 1480 1482 1484 1487 1488 1490 1491 1493 1494 1494 1495 1495 1495 1495 1495 1494 1494 1493 1492 1491 1490 1489 1488 1487 1485 1484
1458 1460 1461 1460 1459 1458 1460 1459 1453 1450 1449 1449 1449 1450 1452 1454 1456 1459 1462 1465 1468 1470 1473 1475 1478 1481 1484 1486 1488 1489 1490 1491 1492 1492 1492 1493 1493 1492 1492 1492 1491 1490 1489 1488 1487 1486 1485 1483 1482
1457 1454 1456 1458 1464 1467 1464 1469 1454 1450 1448 1446 1446 1446 1447 1449 1451 1454 1457 1460 1463 1466 1469 1472 1475 1478 1481 1483 1484 1485 1486 1487 1488 1489 1490 1490 1490 1490 1490 1489 1488 1487 1487 1486 1485 1484 1482 1481 1480
1453 1451 1454 1458 1463 1468 1466 1471 1457 1449 1447 1444 1442 1442 1442 1444 1446 1449 1452 1455 1459 1462 1465 1469 1472 1475 1477 1479 1481 1483 1484 1485 1486 1487 1487 1487 1488 1487 1487 1486 1486 1485 1484 1483 1482 1481 1480 1479 1477
1450 1453 1457 1462 1466 1469 1463 1467 1457 1450 1442 1439 1438 1438 1438 1440 1442 1445 1448 1452 1455 1459 1462 1465 1468 1471 1474 1476 1478 1479 1481 1482 1483 1483 1484 1484 1484 1484 1484 1483 1483 1482 1481 1480 1479 1478 1477 1476 1474
1450 1459 1467 1469 1472 1467 1458 1459 1451 1440 1436 1434 1434 1434 1435 1437 1439 1441 1444 1447 1451 1455 1458 1462 1464 1467 1470 1472 1474 1476 1478 1479 1479 1480 1480 1481 1481 1481 1480 1480 1479 1478 1478 1477 1476 1474 1473 1472 1471
1449 1454 1463 1465 1467 1463 1457 1457 1445 1435 1432 1431 1432 1433 1434 1435 1436 1438 1441 1444 1447 1451 1454 1458 1461 1463 1466 1469 1471 1473 1474 1475 1476 1477 1477 1477 1477 1477 1477 1476 1476 1475 1474 1473 1472 1471 1470 1468 1467
1449 1452 1453 1461 1465 1463 1458 1451 1440 1433 1432 1431 1431 1431 1432 1433 1435 1437 1439 1442 1444 1448 1451 1454 1457 1460 1463 1465 1467 1469 1471 1472 1473 1474 1474 1474 1474 1474 1474 1473 1472 1471 1471 1470 1469 1467 1465 1464 1463
1446 1448 1455 1459 1460 1455 1449 1448 1445 1436 1434 1432 1432 1432 1432 1433 1434 1435 1437 1439 1442 1445 1448 1452 1455 1457 1459 1462 1464 1465 1467 1468 1469 1470 1470 1471 1471 1470 1470 1469 1468 1468 1467 1466 1465 1463 1461 1460 1458
1448 1450 1452 1457 1456 1456 1453 1447 1436 1434 1432 1433 1432 1432 1432 1433 1434 1435 1437 1438 1441 1443 1446 1449 1452 1454 1456 1458 1460 1462 1463 1465 1466 1466 1467 1467 1467 1466 1466 1465 1464 1463 1462 1461 1460 1459 1457 1455 1453
1445 1448 1452 1456 1459 1458 1455 1448 1433 1432 1432 1432 1433 1433 1434 1434 1435 1435 1437 1438 1440 1442 1444 1447 1449 1451 1453 1455 1457 1458 1460 1461 1462 1463 1463 1463 1463 1463 1462 1461 1460 1459 1458 1457 1455 1454 1452 1451 1449